Location: Madrid
(40.4000°N, 3.6830°W)
Time: 07:55:31
(UTC+02:00)

ISS - Pass Details

Date: 15 October 2017
Orbit: 400 x 408 km, 51.6° (Epoch: 24 October)

Event Time Altitude Azimuth Distance (km) Brightness Sun altitude
Rises 19:56:20 0° 308° (NW) 2,324 0.8 -4.9°
Reaches altitude 10° 19:58:26 10° 312° (NW) 1,463 -0.4 -5.3°
Maximum altitude 20:01:41 63° 35° (NE) 456 -3.8 -5.9°
Drops below altitude 10° 20:04:56 10° 117° (ESE) 1,460 -1.5 -6.5°
Enters shadow 20:06:01 - 119° (ESE) 1,899 -0.9 -6.7°
